Flag for U.S.A. Weather past 2 weeks in Austin, Texas, U.S.A.

Now
80 °F

Clear.


Feels Like: 82 °F
Forecast: 69 / 89 °F
Wind: No wind

Location: Camp Mabry / Austin City

Current Time: Sep 21, 2014 at 10:18:17 PM

Latest Report: Sep 21, 2014 at 9:51 PM


Visibility: 10 mi

Pressure: 30.03 "Hg

Humidity: 60%

Dew point: 65 °F

Location of AustinLocation

Historic Weather in Austin — Graph

°F

Austin temperature yesterday

Maximum temperature yesterday: 87 °F (at 2:51 PM)
Minimum temperature yesterday: 74 °F (at 5:02 AM)
Average temperature yesterday: 79 °F

Past Weeks' High & Low Weather Summary

 TemperatureHumidityPressure
High98 °F (Sep 10, 2:51 PM)100% (Sep 12, 6:51 PM)30.23 "Hg (Sep 12, 6:51 PM)
Low60 °F (Sep 13, 7:51 AM)35% (Sep 11, 5:51 PM)29.74 "Hg (Sep 10, 5:51 PM)
Average79 °F76%29.97 "Hg
* Reported Sep 6 8:51 PM — Sep 21 8:51 PM, Austin, Weather by CustomWeather, © 2014

Note: Actual official high and low records may vary slightly from our data, if they occured in-between our weather recording intervals... More about our weather records

Advertising

Austin weather history for previous 24 hours

 ConditionsComfort  
Time TempWeatherWind HumidityBarometerVisibility
8:51 PM
Sep 21
80 °FClear.3 mph62%30.02 "Hg10 mi
7:51 PM83 °FSunny.3 mph55%30.00 "Hg10 mi
6:51 PM86 °FSunny.5 mph48%29.98 "Hg10 mi
5:51 PM88 °FSunny.5 mph48%29.97 "Hg10 mi
4:51 PM90 °FSunny.N/A47%29.96 "Hg10 mi
3:51 PM90 °FScattered clouds.6 mph48%29.97 "Hg10 mi
2:51 PM89 °FPassing clouds.7 mph52%29.99 "Hg10 mi
1:51 PM87 °FSunny.5 mph53%30.02 "Hg10 mi
12:51 PM85 °FScattered clouds.3 mph61%30.05 "Hg10 mi
11:51 AM83 °FScattered clouds.3 mph68%30.06 "Hg10 mi
10:51 AM82 °FSunny.7 mph70%30.06 "Hg10 mi
9:51 AM81 °FSunny.5 mph74%30.06 "Hg10 mi
8:51 AM78 °FSunny.No wind82%30.05 "Hg10 mi
7:51 AM75 °FPassing clouds.3 mph90%30.04 "Hg10 mi
6:51 AM74 °FClear.No wind94%30.01 "Hg10 mi
5:51 AM74 °FClear.No wind94%29.99 "Hg10 mi
4:51 AM75 °FOvercast.No wind94%29.98 "Hg10 mi
3:51 AM74 °FPassing clouds.No wind94%29.98 "Hg10 mi
2:51 AM75 °FClear.No wind94%29.97 "Hg10 mi
1:51 AM76 °FClear.No wind91%29.96 "Hg10 mi
12:51 AM77 °FOvercast.No wind88%29.97 "Hg10 mi
11:51 PM
Sep 20
78 °FMostly cloudy.3 mph84%29.97 "Hg10 mi
10:51 PM79 °FMostly cloudy.No wind77%29.97 "Hg10 mi
Weather by CustomWeather, © 2014

See weather overviewHow to use our weather pages